Tracking 28790 objects as of 18-Apr-2024
HD Live streaming from Space Station
objects crossing your sky now

PSLV R/B

Track PSLV R/B now!
10-day predictions


NORAD ID: 51659
Int'l Code: 2022-013D
Perigee: 472.3 km
Apogee: 510.7 km
Inclination: 97.5 °
Period: 94.3 minutes
Semi major axis: 6862 km
RCS: Unknown
Launch date: February 14, 2022
Source: India (IND)
Launch site: SRIHARIKOTA (SRI)

Note: This is a ROCKET BODY
Your satellite tracking list
Your tracking list is empty




NASA's NSSDC Master Catalog

Two Line Element Set (TLE):
1 51659U 22013D   24109.49466115  .00017482  00000-0  65139-3 0  9995
2 51659  97.5436 130.6800 0028004  90.1309 270.3139 15.27143148120684
Source of the keplerian elements: AFSPC